Вернуться в каталог

AAC-AIS-SAT-1

АктивенНаукаSSO
NORAD 55107·PAYLOAD·🇬🇧 United Kingdom

Запущен Jan 3, 2023 с Cape Canaveral Space Force Station

Loading…

Ближайшие Пролёты (ближайшие 24 часа)

TLE

СвежийSource: Space-Track

Эпоха: Sep 14, 2026, 13:01 UTC

1 55107U 23001DC  26257.54270981  .00003289  00000-0  32375-3 0  9997
2 55107  97.9133 334.7918 0008756 351.7941   8.3134 14.92767450191615

Отслеживайте AAC-AIS-SAT-1 в реальном времени с AllMySat

Download on the App Store